Sivas, Turkey

3:32 PM +03 on December 03, 2016 (GMT +0300)
Sivas

Weather History for LTAR - December, 2012

Change the Weather History Date:

Tuesday, December 11, 2012

  Actual Average Record
Temperature  
Mean Temperature 37 °F -  
Max Temperature 42 °F - - ()
Min Temperature 32 °F - - ()
Degree Days  
Heating Degree Days 28    
Moisture  
Dew Point 32 °F    
Average Humidity 91    
Maximum Humidity 100    
Minimum Humidity 67    
Precipitation  
Precipitation 0.08 in - - ()
Sea Level Pressure  
Sea Level Pressure 29.82 in    
Wind  
Wind Speed 10 mph ()    
Max Wind Speed 22 mph    
Max Gust Speed -    
Visibility 5.4 miles    
Events Fog , Rain , Snow    
T = Trace of Precipitation, MM = Missing Value Source: Averaged Metar Reports

Daily Weather History Graph

Daily Weather History Graph

Search for Another Location

Airport or City:

Trip Planner

Search our weather history database for the weather conditions in past years. The results will help you decide how hot, cold, wet, or windy it might be!

Date:

Astronomy

Dec. 11, 2012 Rise Set
Actual Time 6:43 AM EET 4:07 PM EET
Civil Twilight 6:13 AM EET 4:38 PM EET
Nautical Twilight 5:39 AM EET 5:12 PM EET
Astronomical Twilight 5:06 AM EET 5:44 PM EET
Moon 4:13 AM EET (12/11) 2:28 PM EET (12/11)
Length of Visible Light 10h 24m
Length of Day
9h 24m
Waning Crescent, 6% of the Moon is Illuminated
Dec 11
Waning Crescent
Dec 13
New
Dec 20
First Quarter
Dec 28
Full
Jan 5
Last Quarter

Hourly Weather History & Observations

Time (EET) Temp. Windchill Dew Point Humidity Pressure Visibility Wind Dir Wind Speed Gust Speed Precip Events Conditions
12:50 AM 33.8 °F 21.9 °F 32.0 °F 93% 29.68 in 6.2 mi SE 21.9 mph - N/A Rain Light Rain
1:50 AM 33.8 °F 22.2 °F 32.0 °F 93% 29.68 in 6.2 mi ESE 20.7 mph - N/A Snow Light Snow
2:00 AM 39 °F - 32 °F 67%  in 6 mi East 4.6 mph - - Rain Light Rain
2:50 AM 33.8 °F 23.2 °F 32.0 °F 93% 29.68 in 6.2 mi ESE 17.3 mph - N/A Snow Light Snow
3:50 AM 33.8 °F 22.2 °F 30.2 °F 87% 29.65 in 6.2 mi SE 20.7 mph - N/A   Overcast
4:50 AM 32.0 °F 22.1 °F 32.0 °F 100% 29.68 in - ESE 13.8 mph - N/A Snow Light Snow
5:50 AM 32.0 °F 24.2 °F 32.0 °F 100% 29.71 in 6.2 mi SE 9.2 mph - N/A   Overcast
6:50 AM 32.0 °F 22.5 °F 30.2 °F 93% 29.71 in 4.3 mi SE 12.7 mph - N/A Snow Light Snow
7:50 AM 32.0 °F 23.6 °F 32.0 °F 100% 29.74 in 0.7 mi SE 10.4 mph - N/A Snow Light Snow
8:00 AM 37 °F - 31 °F 72%  in 4 mi NE 1.2 mph - - Rain Light Rain
8:50 AM 32.0 °F 24.8 °F 32.0 °F 100% 29.77 in 0.4 mi SE 8.1 mph - N/A Fog , Snow Snow
9:50 AM 32.0 °F 24.2 °F 32.0 °F 100% 29.77 in 3.1 mi SE 9.2 mph - N/A Snow Light Snow
10:50 AM 33.8 °F 27.0 °F 32.0 °F 93% 29.80 in 5.0 mi South 8.1 mph - N/A   Mostly Cloudy
11:50 AM 33.8 °F 28.6 °F 33.8 °F 100% 29.80 in 6.2 mi SSE 5.8 mph - N/A   Mostly Cloudy
12:50 PM 33.8 °F 26.4 °F 33.8 °F 100% 29.80 in 6.2 mi South 9.2 mph - N/A   Mostly Cloudy
1:50 PM 35.6 °F 29.9 °F 33.8 °F 93% 29.83 in 2.5 mi SW 6.9 mph - N/A Rain Light Rain
2:00 PM 42 °F - 35 °F 70%  in 6 mi Calm Calm - - Rain Light Rain
2:50 PM 33.8 °F 27.7 °F 33.8 °F 100% 29.86 in 5.6 mi WSW 6.9 mph - N/A Rain , Snow Light Rain
3:50 PM 33.8 °F 29.6 °F 33.8 °F 100% 29.86 in 6.2 mi SW 4.6 mph - N/A   Mostly Cloudy
4:50 PM 33.8 °F 27.7 °F 32.0 °F 93% 29.89 in 6.2 mi SSW 6.9 mph - N/A   Mostly Cloudy
5:50 PM 33.8 °F 29.6 °F 32.0 °F 93% 29.89 in 6.2 mi SW 4.6 mph - N/A   Mostly Cloudy
6:50 PM 33.8 °F 25.8 °F 30.2 °F 87% 29.92 in 6.2 mi SW 10.4 mph - N/A   Mostly Cloudy
7:50 PM 33.8 °F 25.8 °F 32.0 °F 93% 29.95 in 6.2 mi SW 10.4 mph - N/A   Mostly Cloudy
8:00 PM 39 °F - 32 °F 69%  in 9 mi West 2.3 mph - -   Partly Cloudy
8:50 PM 33.8 °F 26.4 °F 32.0 °F 93% 29.95 in 6.2 mi SW 9.2 mph - N/A   Mostly Cloudy
9:50 PM 32.0 °F 24.2 °F 30.2 °F 93% 29.98 in 6.2 mi SW 9.2 mph - N/A   Mostly Cloudy
10:50 PM 32.0 °F 22.5 °F 30.2 °F 93% 29.98 in 6.2 mi SW 12.7 mph - N/A   Mostly Cloudy
11:50 PM 32.0 °F 24.2 °F 30.2 °F 93% 29.98 in 6.2 mi SSW 9.2 mph - N/A   Mostly Cloudy